Back to catalog

STARLINK-5537

AliveCommunicationsVLEO
NORAD 55384·PAYLOAD·🇺🇸 United States

Launched Jan 26, 2023 from Cape Canaveral Space Force Station

Loading…

Next Passes (next 24 hours)

TLE

FreshSource: CelesTrak SupGP

Epoch: Sep 14, 2026, 21:04 UTC

1 55384C 23013BF  26257.87826389 -.00051903  00000+0 -18797-2 0  2577
2 55384  43.0045 329.7859 0002000 283.8672 156.1407 15.27607412    14

Track STARLINK-5537 in real time with AllMySat

Download on the App Store